Charlottetown, Prince Edward Island

11:58 AM AST on December 14, 2017 (GMT -0400)
Charlottetown

Weather History for CYYG - December, 2012

Change the Weather History Date:

Friday, December 28, 2012

  Actual Average Record
Temperature  
Mean Temperature 32 °F -  
Max Temperature 37 °F 26 °F 46 °F (2008)
Min Temperature 28 °F 10 °F 3 °F (1999)
Degree Days  
Heating Degree Days 32    
Moisture  
Dew Point 34 °F    
Average Humidity 98    
Maximum Humidity 100    
Minimum Humidity 93    
Precipitation  
Precipitation 0.16 in 0.14 in - ()
Sea Level Pressure  
Sea Level Pressure 29.38 in    
Wind  
Wind Speed 10 mph ()    
Max Wind Speed 21 mph    
Max Gust Speed 36 mph    
Visibility 5.4 miles    
Events Fog , Rain , Snow    
Averages and records for this station are not official NWS values.
T = Trace of Precipitation, MM = Missing Value Source: Averaged Metar Reports

Daily Weather History Graph

Daily Weather History Graph

Search for Another Location

Airport or City:

Trip Planner

Search our weather history database for the weather conditions in past years. The results will help you decide how hot, cold, wet, or windy it might be!

Date:

Astronomy

Dec. 28, 2012 Rise Set
Actual Time 7:55 AM AST 4:33 PM AST
Civil Twilight 7:20 AM AST 5:08 PM AST
Nautical Twilight 6:42 AM AST 5:46 PM AST
Astronomical Twilight 6:05 AM AST 6:23 PM AST
Moon 5:09 PM AST (12/28) 7:43 AM AST (12/28)
Length of Visible Light 9h 48m
Length of Day
8h 38m
Full, 100% of the Moon is Illuminated
Dec 28
Full
Jan 4
Last Quarter
Jan 11
New
Jan 18
First Quarter
Jan 27
Full

Hourly Weather History & Observations

Time (AST) Temp. Windchill Dew Point Humidity Pressure Visibility Wind Dir Wind Speed Gust Speed Precip Events Conditions
12:00 AM 32.0 °F 21.6 °F 32.0 °F 100% 29.57 in 2.5 mi ENE 15.0 mph 21.9 mph N/A Rain Light Rain
1:00 AM 33.8 °F 23.9 °F 32.0 °F 93% 29.51 in 2.2 mi ENE 15.0 mph 23.0 mph N/A Rain Light Rain
2:00 AM 34 °F - 34 °F 98% 29.47 in 7 mi East 13.8 mph - - Rain Light Rain
2:00 AM 33.8 °F 23.5 °F 33.8 °F 100% 29.47 in 8.0 mi East 16.1 mph - N/A Rain Light Rain
2:33 AM 35.6 °F 25.9 °F 33.8 °F 93% 29.45 in 10.0 mi East 16.1 mph 23.0 mph N/A   Overcast
3:00 AM 35.6 °F 26.6 °F 33.8 °F 93% 29.44 in 6.0 mi East 13.8 mph 26.5 mph N/A   Light Drizzle
4:00 AM 35.6 °F 26.2 °F 33.8 °F 93% 29.40 in 6.0 mi ENE 15.0 mph 20.7 mph N/A   Light Drizzle
5:00 AM 37.4 °F 28.5 °F 35.6 °F 93% 29.37 in 8.0 mi East 15.0 mph - N/A   Overcast
5:45 AM 37.4 °F 29.8 °F 35.6 °F 93% 29.35 in 4.0 mi East 11.5 mph 19.6 mph N/A Rain Light Rain
6:00 AM 37.4 °F 29.8 °F 35.6 °F 93% 29.34 in 5.0 mi East 11.5 mph - N/A Rain Light Rain
6:14 AM 37.4 °F 29.8 °F 35.6 °F 93% 29.34 in 5.0 mi East 11.5 mph - N/A   Light Drizzle
7:00 AM 37.4 °F 31.4 °F 35.6 °F 93% 29.33 in 6.0 mi ENE 8.1 mph - N/A   Light Drizzle
7:51 AM 37.4 °F 32.8 °F 35.6 °F 93% 29.33 in 15.0 mi NE 5.8 mph - N/A   Overcast
8:00 AM 36 °F - 35 °F 96% 29.33 in 15 mi NE 5.8 mph - - Rain Light Drizzle
8:00 AM 35.6 °F 29.9 °F 35.6 °F 100% 29.33 in 15.0 mi ENE 6.9 mph - N/A   Overcast
9:00 AM 37.4 °F 32.8 °F 35.6 °F 93% 29.32 in 15.0 mi ENE 5.8 mph - N/A   Overcast
9:09 AM 35.6 °F 32.8 °F 35.6 °F 100% 29.32 in 15.0 mi NE 3.5 mph - N/A   Overcast
9:15 AM 35.6 °F 32.8 °F 35.6 °F 100% 29.32 in 15.0 mi NNE 3.5 mph - N/A   Overcast
10:00 AM 35.6 °F 31.7 °F 35.6 °F 100% 29.32 in 15.0 mi NE 4.6 mph - N/A   Overcast
10:07 AM 35.6 °F 31.7 °F 35.6 °F 100% 29.32 in 15.0 mi NNE 4.6 mph - N/A   Light Drizzle
10:24 AM 37.4 °F 34.9 °F 37.4 °F 100% 29.33 in 5.0 mi North 3.5 mph - N/A Rain Light Rain
10:39 AM 37.4 °F 33.8 °F 37.4 °F 100% 29.33 in 2.0 mi NW 4.6 mph - N/A   Light Drizzle
11:00 AM 35.6 °F 30.7 °F 35.6 °F 100% 29.33 in 1.5 mi NNW 5.8 mph - N/A   Light Drizzle
11:15 AM 35.6 °F 30.7 °F 35.6 °F 100% 29.32 in 1.0 mi NW 5.8 mph - N/A   Light Drizzle
12:00 PM 35.6 °F 31.7 °F 35.6 °F 100% 29.31 in 1.0 mi NW 4.6 mph - N/A   Light Drizzle
12:31 PM 35.6 °F 30.7 °F 35.6 °F 100% 29.31 in 2.0 mi WNW 5.8 mph - N/A Rain Light Rain
1:00 PM 35.6 °F 32.8 °F 35.6 °F 100% 29.30 in 2.0 mi WNW 3.5 mph - N/A Rain Light Rain
1:23 PM 35.6 °F 30.7 °F 35.6 °F 100% 29.30 in 2.0 mi WNW 5.8 mph - N/A Rain Light Rain
1:47 PM 35.6 °F 29.9 °F 35.6 °F 100% 29.30 in 1.0 mi WNW 6.9 mph - N/A Rain Light Rain
2:00 PM 36 °F - 36 °F 99% 29.31 in 0 mi NW 5.8 mph - - Rain Light Rain
2:00 PM 35.6 °F 30.7 °F 35.6 °F 100% 29.30 in 0.5 mi NW 5.8 mph - N/A Fog , Rain Light Rain
2:21 PM 35.6 °F 31.7 °F 35.6 °F 100% 29.31 in 1.5 mi NW 4.6 mph - N/A   Overcast
3:00 PM 35.6 °F 28.6 °F 35.6 °F 100% 29.31 in 0.2 mi NW 9.2 mph - N/A Fog Fog
4:00 PM 35.6 °F 28.0 °F 35.6 °F 100% 29.34 in 0.2 mi WNW 10.4 mph 18.4 mph N/A Fog Fog
4:33 PM 35.6 °F 27.1 °F 35.6 °F 100% 29.35 in 0.5 mi WNW 12.7 mph 21.9 mph N/A Fog Fog
5:17 PM 33.8 °F 23.9 °F 33.8 °F 100% 29.37 in 1.5 mi NW 15.0 mph 24.2 mph N/A   Light Drizzle
6:00 PM 33.8 °F 24.3 °F 33.8 °F 100% 29.39 in 3.0 mi WNW 13.8 mph 24.2 mph N/A   Light Drizzle
7:00 PM 33.8 °F 23.5 °F 33.8 °F 100% 29.42 in 5.0 mi NW 16.1 mph 31.1 mph N/A   Light Drizzle
8:00 PM 33 °F - 33 °F 97% 29.45 in 5 mi NW 19.6 mph - - Rain Light Drizzle
8:00 PM 32.0 °F 21.2 °F 32.0 °F 100% 29.45 in 5.0 mi NW 16.1 mph 34.5 mph N/A   Light Drizzle
8:27 PM 33.8 °F 22.5 °F 32.0 °F 93% 29.46 in 4.0 mi NW 19.6 mph 35.7 mph N/A Snow Light Snow Showers
9:29 PM 32.0 °F 19.8 °F 32.0 °F 100% 29.50 in 1.0 mi WNW 20.7 mph 29.9 mph N/A Snow Light Snow Showers
10:00 PM 30.2 °F 18.1 °F 30.2 °F 100% 29.52 in 1.0 mi WNW 18.4 mph 33.4 mph N/A Snow Light Snow Showers
10:48 PM 30.2 °F 17.4 °F 28.4 °F 93% 29.55 in 3.0 mi WNW 20.7 mph 32.2 mph N/A Snow Light Snow Showers
11:00 PM 30.2 °F 17.8 °F 28.4 °F 93% 29.56 in 3.0 mi WNW 19.6 mph 29.9 mph N/A Snow Light Snow Showers